STARLINK-3859, 52470

Orbit data source: Space-Track

STARLINK-3859, 52470 is a payload satellite owned by SpaceX/Seattle (US) in LEO that was launched on Fri, 06 May 2022 UTC via an FALCON 9 launch vehicle from the Air Force Eastern Test Range (AFETR). Payload-class satellites include a variety of spacecraft equipped with specific instruments for various scientific and technological missions. These include communications satellites like Starlink; space stations such as the ISS; scientific satellites like the Hubble; Earth observation satellites from companies like Planet Labs, Umbra, and HawkEye 360; GPS; miniature CubeSats for education and research; and military/defense satellites.

Loading next visibility...
Identifier
52470, 2022-049V
Orbit
LEO
Country
Flag of USUS
Related business
Manufacturer
SpaceX/Seattle
Mission
Operational Commercial Communications
Bus & Motor
STARLINK, Unknown motor
Mass
297 kg wet, ~220 kg dry
Launch date (UTC)
2022-05-06 (4 years ago)
Launch vehicle
FALCON 9
Launch site
Air Force Eastern Test Range (AFETR)
Object type
Payload
Rocket body
Debris
Shape & HBR
Box + 1 Pan, 10.1 m
Radar Cross Section
13.562 m², Large (>1 m²)

Expand to show TLE details & history
Last TLE update: 21 hours ago

TLE from 21 hours ago
0 STARLINK-3859
1 52470U 22049V   25346.73596482 -.00001076  00000-0 -49531-4 0  9991
2 52470  53.2158  89.4701 0001185  82.1712 277.9415 15.08828619199124
Epoch: 2025-12-12T17:39Z
TLE epoch observation values (Epoch: 2025-12-12T17:39:47.360Z)
Latitude
0.00001°
Longitude
102.84946°
Altitude
540.562 km
Speed
7.593 km/s
True Right ascension
05h 57m 52s
True Declination
0° 00' 00"
Sunlit
Object was in full shadow at epoch
Visualization orbit readout
Latitude
Unknown
Longitude
Unknown
Altitude
Unknown
Speed
Unknown
Apparent Right ascension
Unknown
Apparent Declination
Unknown
Sunlit
N/A
Visualization observer readout
Local Sidereal Time
12:54:00
Azimuth
Unknown
Elevation
Unknown
Doppler factor
Unknown
Orbital elements
Apogee altitude
540.843 km
Perigee altitude
539.204 km
Semi-major axis
6,918.16 km
Eccentricity
0.00012
Inclination
53.2158°
RAAN
89.4701°
Arg. of periapsis
82.1712°
True anomaly
277.92805°
Mean anomaly
277.9415°
Eccentric anomaly
277.93478°
Mean motion
3.77187 °/min
Orbital period
95.44 mins
BSTAR
-0.000049531
Loading maneuver chart data...
Computing Atmospheric mass density...
Loading historical data...
Loading historical data...
Loading historical data...
Loading historical data...
Loading historical data...
Loading historical data...
Loading historical data...

Documentation

Showing up to 5 results
|